Location: Grange Verzio
(44.5000°N, 6.9833°E)
Time: 18:46:56
(UTC+00:00)

Cosmos 2333 Rocket - Pass Details

Date: 01 February 2023
Orbit: 837 x 864 km, 70.8° (Epoch: 29 March)

Event Time Altitude Azimuth Distance (km) Brightness Sun altitude
Rises 20:19:55 0° 240° (WSW) 3,383 5.8 -39.1°
Reaches altitude 10° 20:22:43 10° 252° (WSW) 2,454 5.1 -39.5°
Enters shadow 20:25:58 24° 285° (WNW) 1,679 4.2 -40.1°
